QPF
0.00 0.00 0.00 0.00 0.00 0.00 0.00 0.00 0.00 0.00 0.00 0.00 0.00 0.00 0.00 0.00 0.00 0.00 0.00 0.00 0.00 0.00 0.00 0.00 0.00 0.01 0.01 0.01 0.01 0.03 0.07 0.10 0.10 0.08 0.08 0.07 0.08 0.08 0.07 0.08 0.10 0.09 0.09 0.08
0.00 0.00 0.00 0.00 0.00 0.00 0.00 0.00 0.00 0.00 0.00 0.00 0.00 0.00 0.00 0.00 0.00 0.00 0.00 0.00 0.00 0.00 0.00 0.01 0.01 0.00 0.01 0.01 0.03 0.09 0.11 0.08 0.07 0.08 0.10 0.09 0.09 0.08 0.09 0.07 0.08 0.07 0.09 0.10
0.00 0.00 0.00 0.00 0.00 0.00 0.00 0.00 0.00 0.00 0.00 0.00 0.00 0.00 0.00 0.00 0.00 0.00 0.00 0.00 0.00 0.00 0.01 0.02 0.02 0.01 0.01 0.02 0.05 0.07 0.06 0.06 0.07 0.08 0.11 0.09 0.08 0.07 0.07 0.07 0.07 0.07 0.07 0.08
0.00 0.00 0.00 0.00 0.00 0.00 0.00 0.00 0.00 0.00 0.00 0.00 0.00 0.00 0.00 0.00 0.00 0.00 0.00 0.00 0.00 0.00 0.01 0.01 0.01 0.01 0.01 0.02 0.03 0.02 0.02 0.03 0.04 0.04 0.06 0.06 0.06 0.08 0.08 0.08 0.08 0.06 0.06 0.07
0.00 0.00 0.00 0.00 0.00 0.00 0.00 0.00 0.00 0.00 0.00 0.00 0.00 0.00 0.00 0.00 0.00 0.00 0.00 0.00 0.00 0.00 0.00 0.00 0.01 0.01 0.00 0.01 0.02 0.01 0.01 0.02 0.04 0.05 0.06 0.06 0.07 0.08 0.07 0.07 0.07 0.06 0.05 0.05
0.00 0.00 0.00 0.00 0.00 0.00 0.00 0.00 0.00 0.00 0.00 0.00 0.00 0.00 0.00 0.00 0.00 0.00 0.00 0.00 0.00 0.00 0.00 0.00 0.01 0.01 0.00 0.00 0.01 0.01 0.02 0.04 0.04 0.03 0.04 0.06 0.06 0.05 0.05 0.07 0.07 0.06 0.05 0.05
0.00 0.00 0.00 0.00 0.00 0.00 0.00 0.00 0.00 0.00 0.00 0.00 0.00 0.00 0.00 0.00 0.00 0.00 0.00 0.00 0.00 0.00 0.00 0.00 0.01 0.01 0.00 0.00 0.01 0.02 0.03 0.05 0.05 0.04 0.04 0.05 0.05 0.05 0.05 0.05 0.07 0.07 0.06 0.05
0.00 0.00 0.00 0.00 0.00 0.00 0.00 0.00 0.00 0.00 0.00 0.00 0.00 0.00 0.00 0.00 0.00 0.00 0.00 0.00 0.00 0.00 0.00 0.01 0.00 0.00 0.01 0.01 0.01 0.01 0.03 0.03 0.03 0.04 0.04 0.04 0.04 0.03 0.03 0.04 0.05 0.05 0.04 0.03
0.00 0.00 0.00 0.00 0.00 0.00 0.00 0.00 0.00 0.00 0.00 0.00 0.00 0.00 0.00 0.00 0.00 0.00 0.00 0.00 0.00 0.00 0.00 0.00 0.00 0.00 0.00 0.00 0.01 0.01 0.01 0.02 0.02 0.02 0.02 0.02 0.02 0.02 0.02 0.02 0.02 0.02 0.02 0.02
0.00 0.00 0.00 0.00 0.00 0.00 0.00 0.00 0.00 0.00 0.00 0.00 0.00 0.00 0.00 0.00 0.00 0.00 0.00 0.00 0.00 0.00 0.00 0.00 0.00 0.00 0.00 0.00 0.01 0.01 0.02 0.02 0.01 0.01 0.01 0.01 0.01 0.01 0.02 0.02 0.02 0.02 0.01 0.01
0.00 0.00 0.00 0.00 0.00 0.00 0.00 0.00 0.00 0.00 0.00 0.00 0.00 0.00 0.00 0.00 0.00 0.00 0.00 0.00 0.00 0.00 0.00 0.00 0.00 0.00 0.00 0.01 0.01 0.01 0.01 0.01 0.01 0.01 0.01 0.00 0.01 0.01 0.02 0.02 0.03 0.03 0.02 0.01
0.00 0.00 0.00 0.00 0.00 0.00 0.00 0.00 0.00 0.00 0.00 0.00 0.00 0.00 0.00 0.00 0.00 0.00 0.00 0.00 0.00 0.00 0.00 0.00 0.00 0.00 0.00 0.01 0.01 0.01 0.01 0.01 0.00 0.00 0.00 0.01 0.01 0.01 0.02 0.03 0.03 0.03 0.02 0.01
0.00 0.00 0.00 0.00 0.00 0.00 0.00 0.00 0.00 0.00 0.00 0.00 0.00 0.00 0.00 0.00 0.00 0.00 0.00 0.00 0.00 0.00 0.00 0.00 0.00 0.00 0.00 0.00 0.01 0.01 0.01 0.01 0.01 0.01 0.01 0.01 0.01 0.01 0.01 0.02 0.02 0.02 0.02 0.02
0.00 0.00 0.00 0.00 0.00 0.00 0.00 0.00 0.00 0.00 0.00 0.00 0.00 0.00 0.00 0.00 0.00 0.00 0.00 0.00 0.00 0.00 0.01 0.01 0.01 0.01 0.00 0.00 0.00 0.01 0.01 0.01 0.01 0.01 0.01 0.02 0.02 0.02 0.02 0.01 0.01 0.01 0.01 0.01
0.00 0.00 0.00 0.00 0.00 0.00 0.00 0.00 0.00 0.00 0.00 0.00 0.00 0.00 0.00 0.00 0.00 0.00 0.00 0.00 0.00 0.00 0.01 0.01 0.00 0.01 0.01 0.00 0.01 0.01 0.01 0.01 0.01 0.00 0.01 0.01 0.01 0.01 0.01 0.01 0.01 0.01 0.00 0.00
0.00 0.00 0.00 0.00 0.00 0.00 0.00 0.00 0.00 0.00 0.00 0.00 0.00 0.00 0.00 0.00 0.00 0.00 0.01 0.00 0.00 0.00 0.00 0.00 0.00 0.00 0.00 0.00 0.00 0.00 0.00 0.00 0.00 0.01 0.01 0.01 0.01 0.01 0.01 0.01 0.00 0.00 0.00 0.01
0.00 0.00 0.00 0.00 0.00 0.00 0.00 0.00 0.00 0.00 0.00 0.00 0.00 0.00 0.00 0.00 0.00 0.00 0.00 0.00 0.00 0.00 0.00 0.00 0.00 0.00 0.00 0.01 0.01 0.00 0.00 0.00 0.00 0.01 0.01 0.01 0.01 0.01 0.01 0.00 0.00 0.00 0.01 0.01
0.00 0.00 0.00 0.00 0.00 0.00 0.00 0.00 0.00 0.00 0.00 0.00 0.00 0.00 0.00 0.00 0.00 0.00 0.00 0.00 0.00 0.00 0.00 0.00 0.00 0.00 0.00 0.00 0.00 0.00 0.00 0.00 0.01 0.01 0.01 0.01 0.01 0.01 0.01 0.00 0.00 0.00 0.00 0.01
0.00 0.00 0.00 0.00 0.00 0.00 0.00 0.00 0.00 0.00 0.00 0.00 0.00 0.00 0.00 0.00 0.00 0.00 0.00 0.00 0.01 0.00 0.00 0.00 0.00 0.00 0.00 0.00 0.00 0.00 0.00 0.01 0.01 0.01 0.01 0.01 0.02 0.02 0.01 0.01 0.00 0.00 0.01 0.03
0.00 0.00 0.00 0.00 0.00 0.00 0.00 0.00 0.00 0.00 0.00 0.00 0.00 0.00 0.00 0.00 0.00 0.00 0.00 0.00 0.00 0.00 0.00 0.00 0.00 0.00 0.00 0.00 0.00 0.01 0.01 0.02 0.01 0.01 0.01 0.00 0.01 0.01 0.01 0.01 0.00 0.01 0.01 0.02
0.00 0.00 0.00 0.00 0.00 0.00 0.00 0.00 0.00 0.00 0.00 0.00 0.00 0.00 0.00 0.00 0.00 0.00 0.00 0.00 0.00 0.00 0.00 0.00 0.00 0.01 0.01 0.00 0.01 0.01 0.02 0.02 0.01 0.02 0.02 0.01 0.01 0.01 0.01 0.01 0.01 0.00 0.01 0.02
0.00 0.00 0.00 0.00 0.00 0.00 0.00 0.00 0.00 0.00 0.00 0.00 0.00 0.00 0.00 0.00 0.00 0.01 0.01 0.00 0.01 0.01 0.00 0.00 0.01 0.01 0.01 0.01 0.01 0.02 0.02 0.02 0.02 0.02 0.02 0.02 0.02 0.02 0.02 0.01 0.00 0.01 0.01 0.02
0.00 0.00 0.00 0.00 0.00 0.00 0.00 0.00 0.00 0.00 0.00 0.00 0.00 0.00 0.00 0.00 0.00 0.00 0.01 0.01 0.01 0.01 0.01 0.00 0.01 0.01 0.01 0.01 0.02 0.02 0.02 0.01 0.02 0.02 0.02 0.02 0.02 0.02 0.01 0.01 0.01 0.01 0.01 0.02
0.01 0.01 0.01 0.00 0.00 0.00 0.00 0.00 0.00 0.00 0.00 0.00 0.00 0.00 0.00 0.00 0.00 0.00 0.01 0.01 0.01 0.00 0.00 0.00 0.00 0.01 0.01 0.01 0.02 0.02 0.02 0.01 0.01 0.02 0.02 0.02 0.02 0.02 0.03 0.03 0.04 0.04 0.03 0.03
0.01 0.01 0.01 0.01 0.01 0.01 0.01 0.02 0.02 0.02 0.01 0.01 0.01 0.01 0.00 0.00 0.00 0.00 0.00 0.01 0.00 0.00 0.01 0.01 0.01 0.01 0.01 0.01 0.02 0.02 0.02 0.01 0.01 0.02 0.02 0.03 0.04 0.06 0.08 0.08 0.07 0.04 0.02 0.02
0.01 0.01 0.02 0.02 0.02 0.03 0.04 0.06 0.06 0.05 0.03 0.03 0.02 0.01 0.01 0.01 0.01 0.01 0.01 0.00 0.00 0.01 0.01 0.01 0.01 0.01 0.01 0.01 0.02 0.02 0.02 0.01 0.02 0.04 0.04 0.05 0.06 0.08 0.07 0.05 0.03 0.02 0.01 0.01
MSLP
1012.13 1012.62 1013.04 1013.38 1013.66 1013.87 1014.02 1014.12 1014.17 1014.15 1014.06 1013.90 1013.69 1013.45 1013.23 1013.05 1012.96 1012.96 1013.08 1013.29 1013.56 1013.87 1014.17 1014.46 1014.72 1014.96 1015.18 1015.43 1015.69 1016.00 1016.33 1016.67 1016.99 1017.26 1017.46 1017.58 1017.62 1017.59 1017.51 1017.42 1017.33 1017.27 1017.24 1017.25
1012.79 1013.14 1013.42 1013.64 1013.82 1014.00 1014.17 1014.33 1014.46 1014.53 1014.53 1014.42 1014.21 1013.93 1013.61 1013.32 1013.09 1012.98 1013.00 1013.13 1013.38 1013.68 1014.01 1014.32 1014.61 1014.86 1015.10 1015.34 1015.61 1015.92 1016.26 1016.64 1017.00 1017.33 1017.59 1017.75 1017.82 1017.78 1017.67 1017.52 1017.37 1017.23 1017.14 1017.10
1013.33 1013.52 1013.65 1013.74 1013.85 1014.00 1014.21 1014.46 1014.72 1014.92 1015.01 1014.97 1014.77 1014.44 1014.03 1013.60 1013.23 1012.98 1012.87 1012.93 1013.14 1013.45 1013.80 1014.17 1014.51 1014.80 1015.07 1015.32 1015.60 1015.90 1016.26 1016.64 1017.03 1017.40 1017.69 1017.89 1017.97 1017.93 1017.80 1017.61 1017.39 1017.19 1017.04 1016.94
1013.71 1013.75 1013.74 1013.73 1013.79 1013.95 1014.23 1014.60 1015.00 1015.34 1015.55 1015.57 1015.38 1014.99 1014.47 1013.89 1013.35 1012.94 1012.71 1012.69 1012.85 1013.16 1013.56 1013.99 1014.39 1014.75 1015.06 1015.34 1015.62 1015.93 1016.27 1016.65 1017.05 1017.43 1017.75 1017.96 1018.06 1018.03 1017.89 1017.67 1017.41 1017.16 1016.95 1016.81
1013.92 1013.85 1013.73 1013.66 1013.71 1013.92 1014.30 1014.80 1015.34 1015.82 1016.13 1016.21 1016.01 1015.56 1014.91 1014.18 1013.47 1012.90 1012.53 1012.41 1012.53 1012.85 1013.29 1013.78 1014.26 1014.69 1015.06 1015.37 1015.66 1015.95 1016.28 1016.64 1017.02 1017.40 1017.72 1017.95 1018.07 1018.06 1017.92 1017.70 1017.44 1017.16 1016.92 1016.73
1013.99 1013.84 1013.68 1013.59 1013.67 1013.95 1014.44 1015.07 1015.74 1016.34 1016.73 1016.84 1016.63 1016.10 1015.33 1014.44 1013.57 1012.84 1012.35 1012.14 1012.22 1012.54 1013.02 1013.58 1014.13 1014.63 1015.05 1015.39 1015.68 1015.95 1016.25 1016.58 1016.93 1017.29 1017.61 1017.86 1018.00 1018.01 1017.91 1017.72 1017.47 1017.20 1016.95 1016.73
1013.92 1013.76 1013.60 1013.55 1013.69 1014.06 1014.64 1015.38 1016.16 1016.84 1017.28 1017.40 1017.15 1016.55 1015.68 1014.67 1013.66 1012.80 1012.20 1011.92 1011.97 1012.28 1012.80 1013.41 1014.03 1014.58 1015.03 1015.39 1015.68 1015.93 1016.19 1016.47 1016.78 1017.11 1017.42 1017.68 1017.85 1017.91 1017.86 1017.71 1017.51 1017.27 1017.03 1016.81
1013.76 1013.63 1013.53 1013.54 1013.76 1014.21 1014.87 1015.68 1016.52 1017.23 1017.69 1017.80 1017.52 1016.86 1015.92 1014.82 1013.73 1012.79 1012.13 1011.81 1011.82 1012.14 1012.68 1013.32 1013.97 1014.56 1015.03 1015.40 1015.67 1015.89 1016.10 1016.33 1016.60 1016.89 1017.18 1017.45 1017.64 1017.75 1017.75 1017.67 1017.53 1017.34 1017.14 1016.95
1013.53 1013.48 1013.46 1013.56 1013.85 1014.36 1015.07 1015.89 1016.73 1017.43 1017.87 1017.96 1017.65 1016.97 1016.01 1014.90 1013.79 1012.84 1012.16 1011.82 1011.83 1012.14 1012.68 1013.33 1013.99 1014.58 1015.05 1015.40 1015.65 1015.83 1015.99 1016.17 1016.39 1016.65 1016.92 1017.18 1017.40 1017.55 1017.61 1017.60 1017.52 1017.40 1017.25 1017.10
1013.27 1013.32 1013.40 1013.59 1013.94 1014.47 1015.16 1015.95 1016.74 1017.38 1017.78 1017.83 1017.53 1016.87 1015.95 1014.89 1013.84 1012.94 1012.30 1011.99 1012.00 1012.30 1012.82 1013.45 1014.08 1014.64 1015.09 1015.41 1015.62 1015.77 1015.89 1016.03 1016.20 1016.42 1016.67 1016.92 1017.15 1017.32 1017.43 1017.47 1017.46 1017.41 1017.32 1017.22
1013.02 1013.18 1013.36 1013.61 1013.99 1014.50 1015.14 1015.84 1016.52 1017.08 1017.41 1017.45 1017.17 1016.59 1015.77 1014.84 1013.92 1013.13 1012.57 1012.30 1012.33 1012.61 1013.08 1013.65 1014.21 1014.72 1015.11 1015.39 1015.57 1015.68 1015.78 1015.88 1016.03 1016.22 1016.44 1016.68 1016.90 1017.08 1017.22 1017.30 1017.34 1017.34 1017.32 1017.29
1012.81 1013.08 1013.34 1013.64 1014.01 1014.47 1015.00 1015.58 1016.13 1016.58 1016.85 1016.88 1016.65 1016.18 1015.53 1014.78 1014.03 1013.40 1012.95 1012.74 1012.77 1013.01 1013.41 1013.88 1014.35 1014.77 1015.09 1015.32 1015.46 1015.56 1015.63 1015.73 1015.86 1016.03 1016.23 1016.45 1016.66 1016.84 1016.98 1017.09 1017.16 1017.21 1017.25 1017.27
1012.67 1013.02 1013.35 1013.67 1014.02 1014.39 1014.81 1015.24 1015.65 1015.98 1016.19 1016.23 1016.08 1015.76 1015.29 1014.75 1014.21 1013.75 1013.42 1013.27 1013.29 1013.46 1013.75 1014.09 1014.44 1014.74 1014.98 1015.15 1015.27 1015.35 1015.44 1015.54 1015.68 1015.85 1016.04 1016.24 1016.44 1016.60 1016.74 1016.86 1016.95 1017.03 1017.11 1017.20
1012.60 1013.03 1013.41 1013.74 1014.04 1014.33 1014.61 1014.90 1015.17 1015.40 1015.56 1015.62 1015.56 1015.40 1015.13 1014.81 1014.47 1014.18 1013.95 1013.83 1013.82 1013.90 1014.05 1014.24 1014.43 1014.61 1014.75 1014.87 1014.96 1015.05 1015.16 1015.29 1015.46 1015.65 1015.85 1016.05 1016.23 1016.39 1016.52 1016.64 1016.74 1016.85 1016.96 1017.10
1012.61 1013.10 1013.51 1013.84 1014.10 1014.31 1014.48 1014.64 1014.79 1014.93 1015.06 1015.15 1015.19 1015.17 1015.09 1014.97 1014.82 1014.66 1014.52 1014.41 1014.33 1014.30 1014.30 1014.31 1014.34 1014.38 1014.42 1014.48 1014.56 1014.66 1014.81 1014.99 1015.20 1015.43 1015.66 1015.87 1016.06 1016.22 1016.35 1016.46 1016.58 1016.70 1016.84 1017.01
1012.67 1013.20 1013.65 1013.99 1014.21 1014.35 1014.44 1014.49 1014.56 1014.64 1014.74 1014.87 1015.00 1015.11 1015.20 1015.24 1015.24 1015.19 1015.09 1014.96 1014.81 1014.65 1014.48 1014.33 1014.19 1014.09 1014.04 1014.03 1014.10 1014.22 1014.41 1014.65 1014.92 1015.20 1015.47 1015.71 1015.92 1016.09 1016.23 1016.36 1016.48 1016.62 1016.78 1016.97
1012.76 1013.33 1013.80 1014.15 1014.36 1014.46 1014.49 1014.48 1014.48 1014.53 1014.63 1014.79 1015.00 1015.22 1015.43 1015.60 1015.71 1015.73 1015.65 1015.49 1015.26 1014.97 1014.65 1014.33 1014.04 1013.82 1013.67 1013.61 1013.66 1013.81 1014.04 1014.33 1014.65 1014.99 1015.31 1015.59 1015.83 1016.03 1016.19 1016.34 1016.48 1016.63 1016.80 1017.00
1012.85 1013.45 1013.95 1014.30 1014.52 1014.61 1014.61 1014.58 1014.55 1014.59 1014.69 1014.89 1015.15 1015.45 1015.75 1016.01 1016.19 1016.26 1016.19 1016.00 1015.69 1015.29 1014.85 1014.40 1013.98 1013.65 1013.42 1013.32 1013.35 1013.50 1013.75 1014.08 1014.45 1014.83 1015.20 1015.52 1015.80 1016.03 1016.22 1016.39 1016.54 1016.70 1016.88 1017.07
1012.94 1013.55 1014.06 1014.44 1014.67 1014.76 1014.77 1014.74 1014.72 1014.75 1014.88 1015.10 1015.40 1015.76 1016.12 1016.44 1016.66 1016.76 1016.70 1016.48 1016.13 1015.66 1015.13 1014.59 1014.09 1013.68 1013.38 1013.23 1013.23 1013.37 1013.63 1013.98 1014.37 1014.77 1015.16 1015.51 1015.81 1016.07 1016.28 1016.47 1016.64 1016.80 1016.97 1017.15
1013.02 1013.64 1014.16 1014.54 1014.79 1014.91 1014.94 1014.93 1014.92 1014.98 1015.13 1015.37 1015.70 1016.09 1016.49 1016.85 1017.10 1017.22 1017.18 1016.97 1016.60 1016.11 1015.54 1014.95 1014.40 1013.94 1013.60 1013.41 1013.38 1013.49 1013.72 1014.04 1014.42 1014.81 1015.20 1015.55 1015.85 1016.11 1016.33 1016.52 1016.69 1016.85 1017.01 1017.17
1013.14 1013.74 1014.25 1014.64 1014.91 1015.05 1015.11 1015.13 1015.16 1015.25 1015.41 1015.67 1016.02 1016.43 1016.85 1017.23 1017.51 1017.66 1017.65 1017.46 1017.12 1016.64 1016.08 1015.49 1014.93 1014.45 1014.08 1013.85 1013.77 1013.83 1014.01 1014.28 1014.61 1014.95 1015.29 1015.60 1015.88 1016.12 1016.32 1016.49 1016.65 1016.79 1016.94 1017.08
1013.32 1013.89 1014.38 1014.77 1015.05 1015.22 1015.32 1015.37 1015.44 1015.55 1015.74 1016.01 1016.37 1016.78 1017.20 1017.59 1017.90 1018.08 1018.10 1017.96 1017.67 1017.24 1016.72 1016.17 1015.63 1015.15 1014.77 1014.51 1014.38 1014.38 1014.48 1014.66 1014.90 1015.16 1015.41 1015.65 1015.86 1016.04 1016.19 1016.33 1016.45 1016.58 1016.70 1016.84
1013.60 1014.13 1014.60 1014.98 1015.27 1015.46 1015.59 1015.68 1015.78 1015.92 1016.13 1016.41 1016.76 1017.17 1017.58 1017.97 1018.28 1018.49 1018.55 1018.46 1018.23 1017.87 1017.42 1016.93 1016.43 1015.97 1015.59 1015.30 1015.12 1015.04 1015.05 1015.12 1015.24 1015.38 1015.52 1015.65 1015.77 1015.86 1015.94 1016.02 1016.10 1016.19 1016.30 1016.43
1014.01 1014.51 1014.95 1015.31 1015.60 1015.81 1015.97 1016.10 1016.24 1016.40 1016.62 1016.90 1017.24 1017.62 1018.01 1018.38 1018.69 1018.90 1018.99 1018.95 1018.78 1018.49 1018.11 1017.68 1017.23 1016.81 1016.43 1016.12 1015.88 1015.73 1015.64 1015.60 1015.59 1015.59 1015.60 1015.60 1015.59 1015.58 1015.57 1015.57 1015.60 1015.65 1015.75 1015.89
1014.56 1015.02 1015.43 1015.78 1016.07 1016.31 1016.49 1016.66 1016.82 1017.00 1017.23 1017.49 1017.81 1018.16 1018.51 1018.84 1019.13 1019.33 1019.43 1019.41 1019.28 1019.05 1018.73 1018.36 1017.96 1017.56 1017.19 1016.87 1016.59 1016.36 1016.17 1016.02 1015.88 1015.75 1015.62 1015.49 1015.35 1015.22 1015.11 1015.03 1015.00 1015.02 1015.11 1015.26
1015.23 1015.66 1016.05 1016.39 1016.69 1016.93 1017.14 1017.34 1017.52 1017.72 1017.95 1018.20 1018.48 1018.78 1019.08 1019.36 1019.59 1019.76 1019.84 1019.82 1019.71 1019.51 1019.23 1018.90 1018.54 1018.17 1017.81 1017.47 1017.16 1016.88 1016.61 1016.36 1016.11 1015.86 1015.60 1015.33 1015.07 1014.83 1014.62 1014.46 1014.37 1014.36 1014.44 1014.60
Thickness
5829 5826 5822 5829 5836 5838 5833 5829 5826 5830 5840 5834 5829 5830 5833 5833 5829 5825 5822 5819 5815 5812 5815 5812 5808 5804 5800 5795 5790 5785 5781 5778 5774 5771 5768 5765 5763 5763 5762 5760 5758 5757 5756 5756
5814 5815 5830 5836 5834 5830 5828 5823 5823 5828 5835 5832 5829 5830 5838 5837 5832 5831 5826 5821 5819 5816 5814 5811 5808 5805 5801 5796 5792 5787 5783 5780 5776 5773 5770 5768 5766 5765 5764 5762 5759 5757 5756 5756
5809 5822 5829 5824 5820 5819 5822 5823 5823 5821 5827 5833 5827 5824 5831 5836 5837 5834 5832 5830 5827 5822 5817 5813 5810 5807 5805 5800 5796 5793 5787 5783 5779 5775 5772 5769 5766 5765 5764 5762 5760 5759 5758 5757
5810 5817 5817 5816 5817 5820 5813 5829 5827 5822 5817 5818 5820 5812 5827 5834 5831 5831 5832 5832 5831 5828 5824 5820 5815 5811 5808 5805 5801 5796 5791 5786 5781 5777 5774 5770 5766 5763 5763 5762 5761 5760 5759 5758
5802 5809 5808 5809 5818 5821 5823 5829 5826 5823 5818 5816 5819 5813 5826 5833 5827 5832 5836 5836 5836 5834 5830 5824 5820 5816 5813 5810 5804 5799 5792 5787 5783 5779 5775 5770 5768 5767 5766 5764 5761 5760 5760 5759
5805 5813 5816 5817 5824 5824 5822 5820 5817 5818 5818 5796 5810 5807 5814 5831 5829 5835 5839 5839 5838 5837 5834 5829 5825 5819 5814 5811 5806 5800 5793 5788 5784 5780 5776 5772 5769 5767 5764 5762 5761 5760 5760 5760
5785 5798 5811 5820 5810 5813 5815 5805 5790 5786 5789 5795 5813 5806 5816 5835 5840 5840 5839 5839 5839 5839 5834 5829 5823 5818 5813 5809 5805 5801 5794 5788 5785 5781 5777 5773 5770 5767 5764 5762 5760 5759 5759 5759
5774 5778 5800 5811 5811 5807 5811 5812 5791 5778 5785 5800 5802 5803 5825 5840 5843 5844 5844 5842 5840 5838 5835 5829 5825 5820 5815 5810 5805 5801 5795 5789 5786 5782 5777 5774 5771 5769 5767 5764 5762 5760 5759 5759
5781 5783 5803 5810 5817 5817 5805 5809 5824 5809 5801 5796 5804 5811 5827 5837 5837 5839 5839 5838 5836 5836 5834 5830 5826 5821 5816 5811 5806 5802 5796 5790 5786 5782 5777 5773 5771 5768 5767 5764 5762 5760 5758 5758
5790 5779 5792 5802 5807 5808 5816 5817 5806 5799 5779 5778 5793 5801 5814 5824 5828 5833 5834 5834 5834 5834 5832 5829 5825 5821 5817 5812 5807 5802 5796 5789 5785 5781 5778 5774 5771 5768 5765 5763 5759 5757 5756 5754
5789 5775 5779 5788 5789 5794 5797 5800 5802 5801 5801 5785 5784 5802 5831 5829 5831 5832 5834 5834 5833 5832 5830 5827 5823 5819 5815 5810 5805 5799 5794 5788 5783 5780 5776 5772 5770 5767 5764 5760 5758 5755 5753 5751
5780 5777 5772 5783 5800 5809 5807 5805 5799 5786 5783 5792 5796 5807 5836 5836 5838 5836 5834 5832 5831 5829 5828 5825 5820 5815 5811 5807 5803 5798 5793 5787 5782 5779 5774 5770 5767 5765 5762 5758 5756 5753 5751 5749
5771 5765 5754 5761 5774 5788 5793 5801 5806 5807 5800 5791 5790 5804 5829 5832 5833 5834 5831 5827 5825 5823 5821 5819 5815 5811 5807 5803 5799 5796 5792 5787 5783 5778 5773 5768 5765 5762 5759 5756 5753 5751 5748 5746
5770 5763 5763 5763 5774 5785 5782 5789 5798 5799 5789 5789 5796 5809 5818 5823 5824 5826 5826 5824 5822 5818 5815 5813 5809 5806 5803 5800 5796 5792 5789 5785 5781 5776 5771 5766 5762 5759 5756 5753 5750 5747 5744 5742
5762 5755 5764 5778 5788 5790 5787 5788 5791 5793 5799 5796 5802 5807 5817 5822 5823 5822 5822 5820 5817 5813 5811 5808 5806 5803 5800 5796 5792 5789 5786 5782 5778 5773 5767 5763 5759 5756 5753 5749 5745 5742 5740 5738
5752 5752 5757 5761 5775 5779 5779 5787 5790 5792 5797 5800 5803 5806 5823 5824 5822 5818 5816 5815 5812 5809 5808 5806 5804 5800 5796 5793 5790 5786 5782 5778 5774 5769 5764 5760 5756 5752 5748 5744 5740 5737 5734 5732
5744 5744 5744 5751 5764 5764 5761 5781 5786 5789 5797 5799 5795 5806 5815 5811 5812 5812 5812 5811 5809 5808 5806 5804 5802 5798 5795 5792 5789 5784 5780 5776 5770 5765 5761 5756 5752 5748 5744 5740 5735 5732 5728 5725
5735 5736 5743 5749 5745 5731 5771 5794 5795 5791 5795 5802 5804 5808 5810 5809 5811 5812 5813 5810 5807 5806 5804 5802 5800 5797 5795 5792 5787 5782 5778 5772 5766 5761 5756 5752 5748 5743 5739 5734 5729 5725 5722 5719
5737 5732 5738 5742 5738 5746 5764 5779 5785 5781 5782 5800 5800 5802 5806 5807 5804 5803 5810 5810 5807 5806 5803 5801 5799 5796 5792 5788 5784 5778 5772 5768 5762 5757 5752 5748 5743 5738 5733 5728 5723 5719 5716 5712
5729 5731 5734 5735 5733 5734 5760 5780 5788 5781 5769 5794 5797 5796 5798 5797 5791 5795 5804 5805 5804 5802 5800 5797 5795 5791 5786 5783 5779 5773 5767 5762 5757 5753 5748 5744 5739 5734 5728 5723 5718 5714 5710 5706
5714 5717 5724 5729 5731 5748 5765 5775 5775 5754 5765 5787 5792 5792 5793 5793 5798 5800 5799 5797 5796 5794 5792 5791 5788 5783 5779 5777 5773 5767 5762 5757 5753 5749 5744 5739 5734 5729 5723 5718 5713 5708 5704 5700
5716 5719 5718 5726 5725 5736 5759 5765 5761 5764 5776 5782 5786 5789 5789 5789 5791 5791 5790 5788 5787 5785 5784 5783 5779 5774 5772 5769 5765 5760 5755 5751 5748 5743 5739 5733 5728 5724 5718 5712 5706 5702 5698 5693
5713 5720 5729 5729 5732 5741 5752 5756 5761 5766 5768 5773 5778 5782 5783 5781 5781 5781 5780 5780 5779 5778 5777 5775 5771 5766 5763 5762 5758 5752 5748 5745 5741 5736 5731 5726 5721 5716 5711 5706 5701 5697 5693 5691
5702 5709 5715 5717 5726 5734 5741 5748 5754 5759 5762 5768 5771 5774 5776 5774 5774 5773 5772 5771 5770 5770 5768 5767 5764 5760 5756 5754 5751 5747 5743 5739 5735 5729 5723 5719 5714 5710 5704 5700 5697 5693 5689 5685
5694 5700 5706 5708 5716 5723 5731 5737 5743 5749 5756 5759 5763 5766 5767 5768 5766 5764 5763 5762 5762 5761 5761 5760 5756 5752 5749 5746 5743 5740 5737 5733 5728 5721 5717 5713 5708 5703 5697 5692 5686 5683 5680 5678
5688 5693 5697 5704 5709 5715 5718 5728 5735 5739 5743 5747 5751 5754 5758 5759 5758 5757 5756 5756 5755 5754 5754 5751 5748 5744 5741 5738 5734 5732 5729 5726 5720 5714 5710 5707 5702 5695 5689 5683 5676 5668 5667 5663